Home > Weather > Milton Keynes > Past weeks

Flag for United Kingdom Past Weather in Milton Keynes, England, United Kingdom — Yesterday and Last 2 Weeks

Now
57 °F

Scattered clouds.


Feels Like: 57 °F
Forecast: 57 / 69 °F
Wind: 3 mph from North

Location: Cranfield

Current Time: Jul 28, 2016 at 7:48:04 AM

Latest Report: Jul 28, 2016 at 7:20 AM


Visibility: N/A

Pressure: 29.98 "Hg

Humidity: 88%

Dew Point: 54 °F

Location of Milton KeynesLocation

Past Weather in Milton Keynes — Graph

°F

Milton Keynes Temperature Yesterday

Maximum temperature yesterday: 73 °F (at 3:50 PM)
Minimum temperature yesterday: 61 °F (at 7:20 AM)
Average temperature yesterday: 68 °F

High & Low Weather Summary for the Past Weeks

 TemperatureHumidityPressure
High88 °F (Jul 19, 1:50 PM)100% (Jul 27, 7:20 AM)30.30 "Hg (Jul 27, 7:20 AM)
Low54 °F (Jul 13, 7:20 AM)37% (Jul 18, 5:50 PM)29.71 "Hg (Jul 20, 7:20 AM)
Average70 °F68%30.08 "Hg
* Reported Jul 12 5:20 PM — Jul 27 5:50 PM, Milton Keynes, Weather by CustomWeather, © 2016

Note: Actual official high and low records may vary slightly from our data, if they occured in-between our weather recording intervals... More about our weather records

Advertising

Milton Keynes Weather History for the Previous 24 Hours

Scroll right to see more
 ConditionsComfort  
Time TempWeatherWind HumidityBarometerVisibility
5:50 PM
Wed, Jul 27
72 °FScattered clouds.8 mph65%29.95 "HgN/A
5:20 PM73 °FScattered clouds.10 mph61%29.95 "HgN/A
4:50 PM73 °FScattered clouds.8 mph61%29.95 "HgN/A
4:20 PM73 °FScattered clouds.9 mph61%29.95 "HgN/A
3:50 PM73 °FScattered clouds.9 mph65%29.95 "HgN/A
3:20 PM72 °FScattered clouds.9 mph69%29.95 "HgN/A
2:50 PM72 °FScattered clouds.8 mph73%29.95 "HgN/A
2:20 PM72 °FScattered clouds.10 mph73%29.95 "HgN/A
1:50 PM70 °FScattered clouds.9 mph78%29.95 "HgN/A
1:20 PM72 °FScattered clouds.9 mph73%29.95 "HgN/A
12:50 PM70 °FScattered clouds.7 mph78%29.95 "HgN/A
12:20 PM70 °FScattered clouds.9 mph83%29.95 "HgN/A
11:50 AM70 °FScattered clouds.8 mph83%29.95 "HgN/A
11:20 AM68 °FScattered clouds.13 mph83%29.95 "HgN/A
10:50 AM66 °FScattered clouds.12 mph88%29.95 "HgN/A
10:20 AM66 °FPartly sunny.12 mph94%29.95 "HgN/A
9:50 AM63 °FPartly sunny.12 mph100%29.95 "HgN/A
9:20 AM63 °FDrizzle. Partly sunny.8 mph94%29.95 "Hg2 mi
8:50 AM63 °FPartly sunny.9 mph100%29.95 "HgN/A
8:20 AM63 °FDrizzle. Partly sunny.13 mph94%29.95 "Hg3 mi
7:50 AM63 °FScattered showers. Partly sunny.14 mph94%29.95 "Hg3 mi
7:20 AM61 °FPartly sunny.10 mph100%29.95 "Hg6 mi
Weather by CustomWeather, © 2016

See weather overviewHow to use our weather pages